Home > Weather > St. Petersburg > Past weeks

Flag for U.S.A. Weather for the Past 2 Weeks in St. Petersburg, Florida, U.S.A.

Now
57 °F

Clear.


Feels Like: 56 °F
Forecast: 53 / 67 °F
Wind: 7 mph from West

Location: Whitted Airport

Current Time: Feb 11, 2016 at 11:18:22 PM

Latest Report: Feb 11, 2016 at 10:53 PM


Visibility: 10 mi

Pressure: 30.29 "Hg

Humidity: 87%

Dew point: 53 °F

Location of St. PetersburgLocation

Historic Weather in St. Petersburg — Graph

°F

St. Petersburg Temperature Yesterday

Maximum temperature yesterday: 56 °F (at 12:53 AM)
Minimum temperature yesterday: 50 °F (at 6:53 AM)
Average temperature yesterday: 53 °F

High & Low Weather Summary for the Past Weeks

 TemperatureHumidityPressure
High81 °F (Feb 3, 1:53 PM)100% (Jan 27, 9:53 PM)30.34 "Hg (Jan 27, 9:53 PM)
Low49 °F (Feb 5, 8:53 AM)31% (Feb 5, 3:53 PM)29.73 "Hg (Jan 28, 2:59 PM)
Average60 °F73%30.07 "Hg
* Reported Jan 27 9:53 PM — Feb 11 9:53 PM, St. Petersburg, Weather by CustomWeather, © 2016

Note: Actual official high and low records may vary slightly from our data, if they occured in-between our weather recording intervals... More about our weather records

Advertising

St. Petersburg Weather History for the Previous 24 Hours

 ConditionsComfort  
Time TempWeatherWind HumidityBarometerVisibility
9:53 PM
Thu, Feb 11
56 °FClear.7 mph84%30.29 "Hg10 mi
8:53 PM57 °FClear.8 mph81%30.28 "Hg10 mi
7:53 PM57 °FClear.9 mph78%30.27 "Hg10 mi
6:53 PM58 °FClear.8 mph70%30.26 "Hg10 mi
5:53 PM62 °FSunny.8 mph58%30.25 "Hg10 mi
3:53 PM62 °FSunny.9 mph52%30.24 "Hg10 mi
2:53 PM61 °FSunny.7 mph52%30.24 "Hg10 mi
1:53 PM60 °FSunny.8 mph56%30.26 "Hg10 mi
12:53 PM58 °FSunny.5 mph56%30.29 "Hg10 mi
11:53 AM53 °FSunny.6 mph64%30.32 "Hg5 mi
10:53 AM55 °FSunny.8 mph59%30.34 "Hg10 mi
9:53 AM53 °FSunny.9 mph69%30.34 "Hg10 mi
8:53 AM53 °FSunny.10 mph72%30.32 "Hg10 mi
7:53 AM52 °FSunny.5 mph80%30.31 "Hg10 mi
6:53 AM51 °FClear.3 mph80%30.30 "Hg10 mi
5:53 AM51 °FClear.No wind77%30.27 "Hg10 mi
4:53 AM51 °FClear.3 mph77%30.25 "Hg10 mi
3:53 AM52 °FClear.No wind75%30.24 "Hg10 mi
2:53 AM51 °FClear.3 mph74%30.24 "Hg10 mi
1:53 AM50 °FClear.No wind74%30.25 "Hg10 mi
12:53 AM49 °FClear.5 mph74%30.24 "Hg10 mi
11:53 PM
Wed, Feb 10
50 °FClear.5 mph68%30.26 "Hg10 mi
Weather by CustomWeather, © 2016

See weather overviewHow to use our weather pages